Flag for Australia Weather past 2 weeks in Dubbo, New South Wales, Australia

Now
46 °F

Sunny.


Feels Like: 45 °F
Forecast: 30 / 56 °F
Wind: 3 mph from Southeast

Location: Dubbo Airport

Current Time: Jul 5, 2015 at 10:50:05 AM

Latest Report: Jul 5, 2015 at 10:30 AM


Visibility: N/A

Pressure: 30.21 "Hg

Humidity: 71%

Dew point: 37 °F

Location of DubboLocation

Historic Weather in Dubbo — Graph

°F

Dubbo temperature yesterday

Maximum temperature yesterday: 54 °F (at 2:00 PM)
Minimum temperature yesterday: 27 °F (at 7:00 AM)
Average temperature yesterday: 40 °F

Past Weeks' High & Low Weather Summary

 TemperatureHumidityPressure
High63 °F (Jun 22, 1:30 PM)100% (Jun 20, 10:30 PM)30.54 "Hg (Jun 20, 10:30 PM)
Low27 °F (Jul 4, 7:00 AM)34% (Jun 29, 1:00 PM)30.09 "Hg (Jun 24, 6:00 PM)
Average47 °F83%30.32 "Hg
* Reported Jun 20 9:00 AM — Jul 5 9:30 AM, Dubbo, Weather by CustomWeather, © 2015

Note: Actual official high and low records may vary slightly from our data, if they occured in-between our weather recording intervals... More about our weather records

Advertising

Dubbo weather history for previous 24 hours

 ConditionsComfort  
Time TempWeatherWind HumidityBarometerVisibility
9:30 AM
Sun, Jul 5
41 °FSunny.9 mph81%30.21 "HgN/A
9:00 AM37 °FSunny.10 mph87%30.21 "HgN/A
8:30 AM37 °FSunny.10 mph87%30.21 "HgN/A
8:00 AM36 °FSunny.9 mph93%30.21 "HgN/A
7:30 AM32 °FSunny.10 mph100%30.18 "HgN/A
7:00 AM30 °FSunny.8 mph100%30.18 "HgN/A
6:30 AM30 °FSunny.7 mph93%30.18 "HgN/A
6:00 AM30 °FClear.8 mph100%30.18 "HgN/A
5:30 AM34 °FClear.10 mph93%30.18 "HgN/A
5:00 AM34 °FClear.10 mph93%30.18 "HgN/A
4:30 AM34 °FClear.9 mph93%30.18 "HgN/A
4:00 AM34 °FClear.5 mph93%30.18 "HgN/A
3:30 AM34 °FClear.8 mph93%30.18 "HgN/A
3:00 AM32 °FClear.7 mph87%30.18 "HgN/A
2:30 AM36 °FClear.10 mph93%30.18 "HgN/A
2:00 AM37 °FClear.13 mph87%30.18 "HgN/A
1:30 AM36 °FClear.8 mph93%30.18 "HgN/A
1:00 AM36 °FClear.5 mph93%30.18 "HgN/A
12:30 AM36 °FClear.9 mph93%30.18 "HgN/A
12:00 AM34 °FClear.7 mph87%30.18 "HgN/A
11:30 PM
Sat, Jul 4
34 °FClear.5 mph87%30.21 "HgN/A
11:00 PM34 °FClear.2 mph87%30.21 "HgN/A
10:30 PM36 °FClear.8 mph81%30.21 "HgN/A
10:00 PM37 °FClear.1 mph81%30.21 "HgN/A
9:00 PM41 °FClear.9 mph76%30.21 "HgN/A
8:00 PM39 °FClear.8 mph75%30.21 "HgN/A
7:30 PM43 °FClear.7 mph71%30.21 "HgN/A
7:00 PM43 °FClear.6 mph71%30.21 "HgN/A
6:30 PM45 °FClear.No wind71%30.21 "HgN/A
6:00 PM46 °FClear.3 mph71%30.21 "HgN/A
5:30 PM46 °FClear.5 mph71%30.21 "HgN/A
5:00 PM48 °FClear.6 mph66%30.18 "HgN/A
4:30 PM50 °FClear.6 mph58%30.18 "HgN/A
4:00 PM52 °FSunny.7 mph54%30.18 "HgN/A
3:30 PM52 °FSunny.7 mph54%30.18 "HgN/A
3:00 PM52 °FSunny.6 mph54%30.21 "HgN/A
2:30 PM54 °FSunny.6 mph51%30.21 "HgN/A
2:00 PM54 °FSunny.6 mph44%30.21 "HgN/A
1:30 PM52 °FSunny.3 mph50%30.21 "HgN/A
1:00 PM52 °FSunny.3 mph47%30.21 "HgN/A
12:30 PM52 °FSunny.6 mph44%30.24 "HgN/A
12:00 PM50 °FSunny.5 mph50%30.24 "HgN/A
11:30 AM48 °FSunny.2 mph58%30.27 "HgN/A
11:00 AM48 °FSunny.3 mph62%30.27 "HgN/A
10:30 AM45 °FSunny.6 mph71%30.27 "HgN/A
10:00 AM43 °FSunny.7 mph76%30.27 "HgN/A
Weather by CustomWeather, © 2015

See weather overviewHow to use our weather pages